Clarksville, TN

12:25 PM CST on January 23, 2018 (GMT -0600)
Outlaw

Weather History for KCKV - September, 2014

Change the Weather History Date:

Monday, September 29, 2014

  Actual Average Record
Temperature  
Mean Temperature 70 °F 65 °F  
Max Temperature 87 °F 77 °F 102 °F (1953)
Min Temperature 55 °F 52 °F 34 °F (1967)
Degree Days  
Heating Degree Days 0    
Month to date heating degree days  
Since 1 July heating degree days  
Cooling Degree Days 6    
Month to date cooling degree days  
Year to date cooling degree days  
Growing Degree Days 20 (Base 50)    
Moisture  
Dew Point 58 °F    
Average Humidity 81    
Maximum Humidity 100    
Minimum Humidity 37    
Precipitation  
Precipitation 0.00 in 0.15 in 1.34 in (1987)
Month to date precipitation 3.39  
Year to date precipitation 36.52  
Sea Level Pressure  
Sea Level Pressure 30.00 in    
Wind  
Wind Speed 1 mph (North)    
Max Wind Speed 7 mph    
Max Gust Speed -    
Visibility 5 miles    
Events Fog    
T = Trace of Precipitation, MM = Missing Value Source: NWS Daily Summary

Daily Weather History Graph

Daily Weather History Graph

Search for Another Location

Airport or City:

Trip Planner

Search our weather history database for the weather conditions in past years. The results will help you decide how hot, cold, wet, or windy it might be!

Date:

Astronomy

Sep. 29, 2014 Rise Set
Actual Time 6:43 AM CDT 6:36 PM CDT
Civil Twilight 6:17 AM CDT 7:01 PM CDT
Nautical Twilight 5:47 AM CDT 7:31 PM CDT
Astronomical Twilight 5:17 AM CDT 8:01 PM CDT
Moon 11:47 AM CDT (9/29) 10:16 PM CDT (9/29)
Length of Visible Light 12h 44m
Length of Day
11h 52m
Waxing Crescent, 28% of the Moon is Illuminated
Sep 29
Waxing Crescent
Oct 1
First Quarter
Oct 8
Full
Oct 15
Last Quarter
Oct 23
New

Hourly Weather History & Observations

Time (CDT) Temp. Heat Index Dew Point Humidity Pressure Visibility Wind Dir Wind Speed Gust Speed Precip Events Conditions
12:52 AM 60.1 °F - 59.0 °F 96% 30.04 in 9.0 mi Calm Calm - N/A   Clear
1:36 AM 60.1 °F - 59.0 °F 96% 30.04 in 1.8 mi Calm Calm - N/A   Clear
1:52 AM 60.1 °F - 60.1 °F 100% 30.03 in 1.0 mi ESE 3.5 mph - N/A   Clear
2:13 AM 60.1 °F - 59.0 °F 96% 30.04 in 0.5 mi Calm Calm - N/A Fog Fog
2:31 AM 60.1 °F - 60.1 °F 100% 30.04 in 0.2 mi Calm Calm - N/A Fog Fog
2:52 AM 61.0 °F - 60.1 °F 97% 30.02 in 0.2 mi Calm Calm - N/A Fog Fog
3:05 AM 60.1 °F - 59.0 °F 96% 30.03 in 1.0 mi Calm Calm - N/A   Clear
3:17 AM 60.1 °F - 59.0 °F 96% 30.03 in 0.2 mi Calm Calm - N/A Fog Fog
3:25 AM 57.0 °F - 57.0 °F 100% 30.03 in 0.2 mi Calm Calm - N/A Fog Fog
3:52 AM 57.0 °F - 57.0 °F 100% 30.02 in 0.2 mi SE 3.5 mph - N/A Fog Fog
4:20 AM 57.9 °F - 57.0 °F 97% 30.03 in 1.2 mi Calm Calm - N/A   Partly Cloudy
4:41 AM 57.0 °F - 55.9 °F 96% 30.03 in 0.5 mi North 3.5 mph - N/A Fog Fog
4:52 AM 57.9 °F - 57.9 °F 100% 30.02 in 1.5 mi NNW 3.5 mph - N/A   Clear
4:56 AM 57.9 °F - 57.0 °F 97% 30.03 in 3.0 mi NW 3.5 mph - N/A   Clear
5:25 AM 55.9 °F - 55.0 °F 97% 30.03 in 1.5 mi Calm Calm - N/A   Clear
5:36 AM 57.0 °F - 55.9 °F 96% 30.03 in 0.5 mi Calm Calm - N/A Fog Fog
5:52 AM 57.0 °F - 55.9 °F 96% 30.02 in 0.5 mi Calm Calm - N/A Fog Fog
6:10 AM 55.9 °F - 55.9 °F 100% 30.03 in 0.2 mi Calm Calm - N/A Fog Fog
6:25 AM 57.0 °F - 55.9 °F 96% 30.04 in 1.2 mi NW 5.8 mph - N/A   Partly Cloudy
6:27 AM 57.0 °F - 57.0 °F 100% 30.04 in 5.0 mi NW 4.6 mph - N/A   Partly Cloudy
6:52 AM 57.0 °F - 55.9 °F 96% 30.03 in 5.0 mi Calm Calm - N/A   Clear
7:52 AM 61.0 °F - 60.1 °F 97% 30.04 in 8.0 mi Calm Calm - N/A   Clear
8:52 AM 68.0 °F - 63.0 °F 84% 30.04 in 10.0 mi Calm Calm - N/A   Clear
9:52 AM 75.0 °F - 63.0 °F 66% 30.03 in 10.0 mi Calm Calm - N/A   Clear
10:52 AM 79.0 °F - 61.0 °F 54% 30.02 in 10.0 mi Calm Calm - N/A   Clear
11:52 AM 82.9 °F 82.8 °F 59.0 °F 44% 30.01 in 10.0 mi Calm Calm - N/A   Clear
12:52 PM 82.9 °F 82.6 °F 57.9 °F 42% 29.99 in 10.0 mi Calm Calm - N/A   Partly Cloudy
1:52 PM 84.0 °F 83.5 °F 57.9 °F 41% 29.96 in 10.0 mi Calm Calm - N/A   Partly Cloudy
2:52 PM 86.0 °F 84.9 °F 57.0 °F 37% 29.93 in 10.0 mi ENE 5.8 mph - N/A   Scattered Clouds
3:52 PM 84.0 °F 83.3 °F 57.0 °F 40% 29.92 in 10.0 mi NNW 3.5 mph - N/A   Overcast
4:52 PM 84.9 °F 84.4 °F 59.0 °F 41% 29.91 in 10.0 mi North 4.6 mph - N/A   Clear
5:52 PM 80.1 °F 80.4 °F 57.0 °F 45% 29.92 in 10.0 mi NNE 6.9 mph - N/A   Clear
6:52 PM 75.0 °F - 57.9 °F 55% 29.92 in 10.0 mi NNE 5.8 mph - N/A   Clear
7:52 PM 73.9 °F - 57.0 °F 55% 29.93 in 10.0 mi NNW 3.5 mph - N/A   Clear
8:52 PM 69.1 °F - 57.9 °F 68% 29.94 in 10.0 mi Calm Calm - N/A   Clear
9:52 PM 66.9 °F - 59.0 °F 76% 29.94 in 10.0 mi Calm Calm - N/A   Clear
10:52 PM 63.0 °F - 59.0 °F 87% 29.95 in 10.0 mi Calm Calm - N/A   Clear
11:52 PM 62.1 °F - 60.1 °F 93% 29.94 in 7.0 mi West 3.5 mph - N/A   Clear